ECMWFFLT1_700_spd_069.txt.gz
Wind_Speed
23 24 25 28 30 31 32 32 31 32 32 30 30 31 31 29 28 28 27 27 27 27 27 25 24 25 25 25 27 28 28 27 25 24 24 25 25 23 22 22 21 21 20 19 18 17 17 16 15 15 15 14 13 12 11 10 9 8 7 7 7 7 6
23 23 23 25 28 30 31 31 31 30 31 31 31 31 31 31 30 29 27 27 26 26 26 25 24 24 23 24 25 27 29 28 27 26 25 25 25 24 23 23 23 22 21 19 19 19 19 17 16 16 15 15 14 12 11 11 10 9 8 7 7 6 6
22 21 23 24 25 27 29 31 31 31 30 31 32 31 30 31 31 30 27 26 26 26 27 26 25 23 23 23 24 25 27 29 29 28 27 26 24 23 23 23 23 23 22 21 20 21 21 19 18 17 16 15 14 13 12 11 10 10 9 8 7 7 6
21 19 21 23 24 25 27 29 31 32 31 30 30 28 28 29 30 29 27 26 26 26 27 26 26 25 24 24 23 24 25 27 28 28 28 27 26 24 24 23 24 23 23 23 22 22 22 21 20 19 17 16 14 13 12 11 11 10 9 8 8 7 7
18 19 20 22 25 25 25 27 28 29 29 30 30 28 27 28 29 29 27 26 25 25 26 26 26 25 25 25 24 23 23 25 26 27 28 28 27 27 25 24 24 23 22 23 23 23 22 21 21 20 19 17 15 14 13 13 12 10 10 9 8 7 7
19 21 22 22 25 27 27 27 26 27 27 29 29 28 28 29 29 28 27 26 26 26 26 26 26 26 26 26 25 24 23 24 25 26 27 28 28 29 27 25 24 24 22 22 23 23 23 22 21 21 20 19 18 16 15 14 13 12 11 10 9 8 7
23 22 21 21 22 24 27 29 28 27 28 28 28 28 30 31 29 27 27 27 26 27 28 29 28 28 27 27 26 25 25 24 25 25 25 27 28 29 28 27 25 24 23 23 23 23 23 23 22 21 21 20 19 18 17 15 14 13 12 11 10 9 8
24 21 19 20 19 19 23 27 29 29 28 28 29 30 31 31 29 28 27 27 27 28 29 30 30 29 28 28 27 26 26 25 24 25 25 26 27 28 28 28 27 25 25 24 23 23 23 22 22 22 22 21 20 19 18 18 16 14 13 12 11 10 10
23 21 19 17 17 17 19 23 27 28 28 28 29 30 31 31 30 28 27 26 26 28 30 31 31 30 29 28 28 27 26 26 25 25 26 26 27 27 27 28 27 26 26 26 24 24 24 23 21 21 22 23 22 20 19 19 17 16 14 12 11 11 11
26 22 20 17 15 16 18 22 25 26 27 28 29 29 30 31 30 29 28 26 25 26 27 29 30 30 29 28 28 28 28 28 27 27 27 27 27 27 27 27 27 27 27 26 26 24 23 23 21 20 21 23 24 22 20 19 18 17 15 13 12 12 12
29 25 23 20 17 18 19 21 25 25 27 28 28 28 27 29 31 31 31 28 27 26 26 28 29 29 29 27 27 29 29 29 29 28 28 27 27 27 26 27 27 27 27 26 26 25 23 23 22 21 20 21 23 23 22 20 18 17 16 14 13 12 13
28 27 29 27 23 21 19 20 22 22 23 24 26 26 25 26 30 32 32 30 27 26 27 29 28 28 28 27 27 28 29 30 30 30 29 28 27 27 26 27 27 27 27 26 26 26 25 23 23 22 21 20 20 22 22 21 19 17 16 16 15 14 14
28 27 30 29 26 24 21 20 20 19 20 21 23 25 24 25 27 29 31 31 29 27 27 28 27 26 26 26 26 27 28 29 29 29 29 28 27 27 26 27 27 26 26 26 26 27 26 25 24 23 22 21 21 21 21 22 22 20 19 17 17 16 15
27 29 31 29 27 27 25 23 21 17 18 19 21 24 24 23 25 27 28 29 30 29 27 27 27 26 25 25 25 25 24 26 27 28 28 28 27 27 27 27 27 26 26 26 26 27 26 25 24 23 23 23 22 22 21 22 23 22 21 19 18 17 17
21 33 41 38 37 36 32 28 24 18 16 17 20 25 25 24 24 25 27 28 29 30 28 27 28 27 25 24 24 23 22 22 25 26 27 28 28 28 28 28 27 27 26 26 27 26 26 25 25 24 24 23 24 24 24 24 23 23 21 20 19 18 18
18 32 47 46 43 44 40 35 29 23 21 19 18 21 24 25 24 25 27 29 30 30 28 28 29 28 26 23 21 21 21 21 23 24 26 27 28 28 28 28 27 27 27 27 26 26 26 26 25 24 24 24 24 25 26 26 25 23 22 20 20 19 19
23 29 43 42 39 42 44 41 35 30 27 24 20 19 21 22 22 23 27 30 31 30 29 29 30 29 26 23 22 22 22 22 22 23 24 25 26 28 28 28 28 28 28 27 27 27 27 27 27 25 23 23 24 25 26 26 25 23 22 21 21 20 20
26 23 29 30 28 35 40 39 38 35 31 28 25 24 24 23 20 19 23 28 30 29 30 29 28 28 27 25 24 24 23 22 22 22 23 23 24 26 28 28 28 28 29 28 28 28 28 28 27 26 24 23 23 25 26 25 24 23 22 21 21 21 21
23 21 19 16 17 23 25 26 32 35 35 35 34 31 28 23 20 18 18 23 27 29 32 31 30 30 30 29 29 27 25 23 23 22 22 22 23 25 27 29 29 29 29 29 27 27 28 28 28 27 25 23 22 23 24 25 24 23 22 22 22 22 22
17 17 16 14 13 15 15 15 21 27 30 33 36 37 33 25 20 20 20 21 24 27 32 34 34 35 35 35 35 32 28 26 24 23 22 22 23 24 26 28 28 28 28 28 27 27 28 28 28 27 26 24 22 21 22 24 24 24 23 22 22 23 23
8 10 10 11 11 12 11 10 13 15 18 20 21 25 29 27 23 24 24 22 22 24 27 31 34 35 34 34 34 33 31 29 27 25 23 23 23 25 26 27 27 27 27 27 27 27 26 26 27 28 27 26 23 21 21 22 23 23 23 22 21 22 23
11 5 3 6 7 8 10 12 11 9 8 9 10 15 20 23 24 25 24 24 24 24 24 27 32 35 33 30 28 28 30 30 29 28 26 24 24 25 26 26 26 26 26 26 27 27 26 26 27 27 28 27 25 23 22 22 23 23 23 22 20 20 21
20 14 11 9 7 6 8 12 12 10 7 8 8 13 18 21 23 23 23 25 27 27 27 28 30 31 30 29 27 26 27 28 30 29 28 27 26 25 25 25 26 26 26 25 26 26 26 26 26 26 27 27 27 26 24 23 23 23 23 22 22 21 21
25 23 20 18 15 11 10 11 12 13 12 10 8 11 16 20 21 21 22 25 28 31 31 31 30 27 24 26 30 29 27 27 28 30 30 30 28 27 26 25 26 26 26 26 25 24 24 24 24 25 26 27 28 27 25 24 23 22 22 22 22 22 22
25 28 27 23 20 17 15 14 14 14 15 15 12 12 15 18 20 22 24 26 29 32 32 32 31 28 24 25 30 33 31 28 28 29 30 31 30 29 28 27 27 27 27 27 26 25 24 24 24 24 25 26 27 27 27 26 24 23 22 22 23 23 23
28 29 29 25 23 22 20 17 16 16 17 17 16 15 17 19 20 22 24 26 30 33 33 31 31 30 28 28 32 35 35 32 31 30 30 31 31 31 31 30 29 28 28 28 28 27 27 25 24 24 24 25 26 27 28 27 26 25 24 23 23 24 24
33 32 31 29 26 26 25 22 19 19 19 19 19 19 20 21 23 23 24 25 30 33 33 33 33 32 31 30 32 35 35 34 33 32 30 31 32 34 34 33 32 31 30 29 29 29 29 28 26 24 24 25 26 27 28 28 27 26 25 25 25 25 26
36 34 33 32 30 29 29 27 23 22 21 21 21 21 22 23 24 26 25 27 30 33 34 35 35 34 33 32 33 34 34 33 33 33 33 33 34 36 36 36 35 33 32 31 30 30 31 30 28 26 25 24 26 27 28 27 27 27 26 26 26 26 27
37 37 35 34 33 32 31 30 28 25 23 23 24 24 25 25 26 27 29 30 30 31 33 36 36 34 32 33 35 35 34 32 32 33 34 35 36 37 38 38 38 36 34 33 32 32 32 32 31 29 27 26 26 27 27 27 28 27 27 26 26 27 28
36 39 39 36 34 33 33 33 32 28 25 25 26 27 28 28 28 29 30 31 30 30 33 36 36 35 34 34 36 36 36 34 33 33 34 35 37 39 39 40 39 39 37 35 34 34 34 33 32 32 30 29 27 27 27 27 27 27 27 27 27 27 28
38 39 41 39 36 33 33 33 33 30 28 27 27 28 29 31 31 31 31 30 29 30 32 35 37 37 36 35 37 38 38 37 35 34 34 35 38 40 41 40 40 40 39 38 37 36 35 34 34 33 32 31 29 28 26 26 26 26 25 26 26 26 27
39 41 42 41 38 35 33 32 32 31 30 29 29 29 30 31 32 32 30 28 28 31 32 33 36 38 38 37 36 37 37 36 35 34 34 36 38 40 40 40 40 40 41 41 40 38 36 35 34 34 33 32 31 29 28 26 25 25 24 24 24 25 25
35 38 40 39 38 36 35 34 32 31 31 31 30 30 30 31 33 33 32 29 29 31 33 34 35 37 37 37 37 37 36 35 34 34 34 35 38 39 40 40 41 41 43 42 41 39 37 36 35 34 34 33 32 31 29 27 26 25 24 23 23 23 23
29 32 34 35 36 38 37 36 34 32 32 32 32 31 31 32 32 33 33 32 31 32 34 36 36 36 37 38 38 39 39 37 35 35 36 37 38 39 39 41 41 42 42 42 40 38 36 35 34 34 33 33 32 31 30 29 29 26 23 22 21 21 20
25 27 31 33 35 38 39 37 35 33 33 33 33 33 33 33 32 32 33 34 33 34 35 36 37 37 38 40 41 42 42 40 39 38 38 39 39 40 41 41 42 42 42 42 40 37 35 34 33 32 31 31 31 30 31 31 29 24 20 18 18 18 18
26 27 31 34 35 37 39 38 36 34 33 33 34 34 35 35 33 32 34 36 36 37 38 38 38 39 41 43 45 46 45 44 43 43 42 41 42 42 42 42 41 41 42 41 39 36 33 33 32 30 29 30 30 30 31 30 27 22 19 18 18 18 19
28 29 32 34 35 36 37 37 36 34 33 33 35 36 36 36 34 33 35 37 39 40 41 41 41 42 44 46 47 48 47 47 47 46 45 45 44 43 43 43 42 41 41 39 36 33 32 32 32 31 31 30 30 30 30 29 26 23 21 20 19 19 20
28 28 29 30 32 33 32 34 35 35 33 33 36 38 38 37 36 35 35 37 39 40 42 44 44 45 46 47 48 48 49 50 50 50 49 48 46 44 43 43 41 40 40 37 33 32 32 32 31 31 31 30 30 29 27 25 24 22 22 21 21 21 22

ECMWFFLT1_700_spd_072.txt.gz
Wind_Speed
29 33 34 33 32 31 30 29 30 31 32 33 32 31 30 29 28 28 29 29 28 27 27 27 27 26 25 25 25 25 25 23 22 23 25 26 25 25 24 22 21 20 19 18 16 16 15 15 14 13 14 14 14 13 12 12 11 10 10 9 9 8 8
32 32 35 34 33 32 31 30 30 31 32 33 33 32 31 30 30 30 30 30 29 28 27 27 28 26 24 24 25 26 26 25 23 22 24 26 27 26 25 23 22 21 21 19 18 17 17 16 15 14 14 14 14 13 13 12 12 11 10 9 8 8 8
34 33 33 34 32 31 32 31 32 32 32 32 32 32 32 31 30 30 30 30 30 29 28 27 27 26 25 24 24 25 26 26 25 23 23 25 25 25 24 24 23 22 22 21 20 19 19 17 17 16 15 15 15 14 13 12 12 11 11 10 9 8 8
32 34 32 32 31 31 32 32 33 33 32 31 30 30 30 29 28 28 29 29 30 30 29 28 28 27 26 25 24 25 26 26 26 25 24 24 24 23 23 23 24 24 24 24 22 22 21 20 19 18 17 16 16 15 14 13 12 12 11 11 10 10 9
28 32 33 32 32 32 33 34 34 34 33 31 30 28 28 27 27 27 28 29 30 30 29 28 28 28 27 26 24 24 24 25 26 25 24 24 24 24 23 22 22 23 24 25 24 24 23 22 21 20 19 18 17 17 16 15 14 13 12 12 12 11 11
27 31 33 31 31 31 31 32 33 34 33 31 30 28 27 27 27 27 27 30 31 30 29 29 29 29 28 26 25 23 23 24 25 25 25 25 25 25 24 22 21 21 22 24 25 25 25 24 23 22 21 19 19 18 18 17 15 15 14 13 13 12 12
25 29 30 28 28 28 29 30 31 32 32 31 30 28 27 27 26 26 27 29 31 30 31 31 31 30 29 28 27 25 24 24 24 25 25 25 26 26 25 24 22 21 21 22 23 24 25 25 25 24 24 23 21 20 19 18 17 16 16 15 14 13 12
21 25 27 24 23 24 25 28 29 31 32 32 32 30 28 28 26 26 27 28 30 31 32 32 32 31 30 30 29 27 26 25 24 25 25 26 26 27 26 26 25 23 23 23 22 23 25 25 25 25 25 26 25 23 21 20 20 19 17 16 15 14 13
21 23 22 19 19 20 21 24 26 29 30 32 32 30 29 28 27 27 27 27 28 31 32 32 32 32 31 31 30 29 28 27 26 25 26 26 27 27 26 26 26 25 25 25 23 23 24 24 25 25 25 26 27 26 25 22 21 21 20 18 17 15 14
24 24 20 17 19 19 18 22 25 28 29 30 30 30 29 28 27 28 28 27 27 30 32 33 33 33 32 32 31 30 30 30 28 27 27 27 27 27 26 26 26 27 27 26 26 25 24 24 25 26 26 26 26 27 27 25 24 22 21 20 18 17 16
29 27 22 19 20 20 19 21 23 26 27 29 30 29 29 28 28 28 28 27 27 28 30 32 34 35 34 33 32 31 32 32 31 30 29 28 27 26 26 26 26 27 27 27 28 27 26 25 25 26 27 27 26 26 26 26 25 24 22 21 20 18 18
32 30 23 20 20 20 18 16 18 21 23 26 29 29 28 27 27 29 29 27 26 26 29 31 34 35 35 34 33 33 33 32 32 32 31 29 28 26 26 26 26 27 28 28 28 28 28 27 26 26 27 27 27 26 25 25 25 24 23 22 21 19 18
34 35 32 28 26 25 24 22 20 20 21 23 25 26 26 26 26 27 28 27 26 25 26 29 32 34 35 35 35 34 33 33 33 32 32 30 29 27 27 26 26 27 27 28 29 29 29 29 28 27 26 26 27 27 27 26 25 25 24 24 23 21 20
36 40 41 39 37 37 36 35 33 30 28 27 26 25 24 23 24 25 26 27 26 25 25 27 29 32 34 35 35 34 33 32 32 32 32 31 30 29 28 27 27 27 27 28 29 29 29 29 28 28 27 26 26 27 27 28 28 26 25 25 24 23 22
36 40 43 42 41 41 41 40 39 38 36 34 32 30 26 23 22 23 24 26 27 27 27 27 28 30 32 33 34 33 32 32 32 32 32 32 32 31 30 29 28 28 28 28 29 29 29 29 29 29 29 28 27 26 27 29 30 29 27 26 25 24 24
39 41 42 42 41 41 42 42 40 39 38 37 37 36 34 30 26 25 24 24 25 27 28 29 29 29 31 33 32 31 31 32 33 33 33 33 33 32 31 31 30 29 29 29 29 29 29 29 29 29 29 29 28 28 28 29 30 30 29 28 27 26 25
34 39 41 42 43 42 42 43 42 41 39 38 38 38 38 37 35 32 30 27 25 26 27 29 30 30 31 32 32 30 30 31 32 32 33 33 33 32 32 31 31 31 30 30 29 29 29 29 30 29 29 29 28 28 29 29 28 28 29 29 29 28 28
25 31 35 37 40 42 43 44 44 42 40 40 39 39 39 39 37 36 35 31 27 25 26 28 29 30 30 30 31 31 30 30 30 31 31 31 32 32 32 32 32 32 32 31 30 29 29 30 30 30 29 28 28 29 29 28 28 27 27 28 28 29 29
16 21 26 30 34 37 39 41 43 44 43 41 39 38 39 39 37 34 31 29 28 27 27 28 28 30 30 29 30 30 30 30 30 29 29 30 30 31 32 32 32 32 32 31 30 30 30 30 30 30 30 29 28 28 28 28 27 27 27 27 27 28 29
10 10 9 13 20 29 34 34 36 40 42 41 38 36 38 39 37 32 28 26 26 26 26 27 29 30 31 31 30 30 29 28 29 29 29 29 30 31 32 33 33 32 31 31 31 31 31 30 31 31 30 30 28 28 27 27 27 27 27 28 28 28 28
4 4 2 5 2 14 24 26 28 32 36 39 37 34 34 36 33 27 26 27 26 25 25 26 30 32 33 33 31 29 28 28 28 29 29 29 30 30 31 32 32 32 31 31 31 31 30 30 30 31 31 30 29 28 27 26 26 27 28 29 29 29 29
9 5 4 4 5 2 9 15 19 23 28 32 31 29 29 31 28 24 25 28 28 27 25 25 28 32 35 35 33 31 29 28 28 29 28 28 29 29 29 30 30 31 31 31 31 30 30 30 30 30 31 31 31 29 27 25 25 26 27 28 29 29 29
20 13 9 7 4 2 3 2 8 15 23 26 26 27 27 27 28 28 27 28 29 28 25 24 25 28 33 36 36 34 32 29 29 30 30 30 30 29 29 28 29 30 30 31 30 29 29 30 29 29 30 30 31 31 28 26 25 25 26 27 28 29 30
23 22 13 9 7 4 1 4 3 8 16 20 21 25 24 21 24 30 32 32 32 29 26 26 26 26 29 35 38 37 35 32 31 32 32 32 31 30 30 30 29 29 30 30 30 29 28 28 28 29 30 30 31 31 29 27 25 25 26 26 27 29 30
23 25 22 14 11 9 6 5 7 7 10 12 14 18 19 16 17 23 29 32 33 31 30 30 29 27 27 32 36 37 36 34 33 33 34 34 33 32 31 31 30 30 30 31 30 29 28 28 28 29 29 30 30 30 30 29 27 26 26 26 27 29 30
25 27 27 22 17 15 12 10 9 8 10 11 11 12 13 14 13 16 22 27 30 31 32 32 31 30 29 31 33 35 35 35 35 36 36 36 35 34 33 32 32 32 32 31 31 30 30 29 28 28 28 29 30 30 30 29 28 27 27 27 28 29 30
30 30 29 27 24 21 18 15 13 10 10 10 10 10 11 12 13 16 20 24 27 29 32 32 32 33 33 33 33 34 35 36 37 38 38 37 38 37 36 35 34 33 33 33 32 32 32 30 29 28 28 28 29 30 30 29 29 28 28 28 29 29 30
34 33 32 31 31 28 23 20 18 15 14 12 12 12 13 14 15 18 21 24 26 28 31 32 33 34 35 35 35 35 36 37 39 39 39 40 40 41 40 38 37 35 35 34 33 33 33 32 31 29 28 28 29 29 29 29 29 29 28 29 29 29 30
36 36 35 35 36 34 29 24 21 20 20 19 16 14 15 16 17 20 23 25 26 28 30 32 33 34 35 35 35 36 37 39 40 41 41 41 42 42 41 39 38 37 37 36 35 34 34 33 33 32 30 29 29 28 28 29 29 29 29 29 29 30 30
37 38 38 37 37 36 33 29 26 24 24 24 21 18 17 18 19 22 24 25 28 29 31 32 33 34 36 35 35 36 38 40 42 42 42 42 42 43 42 40 39 38 37 37 38 37 36 35 35 34 32 30 29 29 28 29 29 30 30 30 30 30 30
37 38 39 39 39 39 37 34 31 28 27 28 26 22 20 20 21 23 24 25 28 31 32 33 33 34 36 37 37 38 40 42 44 44 44 43 43 44 43 41 39 38 37 38 39 39 38 36 36 36 35 33 31 29 28 28 29 29 30 30 30 31 31
38 38 39 40 40 41 41 39 37 33 31 32 30 26 22 21 22 24 25 27 30 32 34 34 35 35 36 37 38 38 39 42 44 44 44 43 43 44 43 41 40 39 38 38 38 39 39 38 38 38 38 36 33 31 29 29 29 29 29 30 30 31 31
37 37 37 37 38 39 40 42 43 41 37 35 34 30 26 24 24 25 26 28 31 34 35 36 36 36 37 37 37 38 39 40 41 42 43 44 43 43 42 41 39 39 39 39 39 39 39 39 39 39 39 37 35 33 31 30 30 30 30 29 29 30 30
35 36 36 36 36 37 38 40 43 45 43 38 37 35 33 29 27 27 29 30 32 34 37 38 37 37 37 37 37 37 37 38 39 40 42 43 43 41 40 39 38 38 39 40 39 39 39 38 39 39 39 38 38 37 34 32 30 29 30 29 28 28 28
33 34 35 36 36 37 37 37 39 43 46 44 41 40 38 34 30 29 31 33 33 35 39 40 39 39 38 38 38 37 37 37 38 39 40 41 41 40 39 38 38 38 38 39 39 38 37 37 38 39 40 40 40 39 37 34 30 26 26 27 27 27 27
32 32 34 35 36 37 38 37 37 39 43 45 45 43 42 39 35 32 33 35 35 36 39 41 41 41 40 39 38 38 37 37 37 38 39 39 39 39 39 38 37 36 36 37 37 37 37 37 38 38 39 41 41 40 37 34 29 25 25 25 26 26 26
29 30 31 33 35 37 37 37 37 37 40 43 46 47 44 42 39 35 35 37 38 37 38 40 42 43 42 41 40 39 38 38 37 38 39 39 39 40 40 39 37 36 34 34 35 35 36 37 38 38 38 40 39 38 37 34 30 28 27 26 25 25 26
27 27 28 30 33 35 36 36 35 36 38 40 44 47 47 45 42 39 38 39 40 40 40 41 43 44 43 43 42 40 40 40 39 40 40 41 43 43 42 40 39 36 34 34 34 35 36 36 37 38 38 38 37 36 36 34 32 30 29 28 27 27 28

ECMWFFLT1_700_spd_075.txt.gz
Wind_Speed
27 28 29 31 33 34 35 36 36 33 31 30 29 28 27 27 27 28 29 29 28 28 28 26 25 24 23 23 23 22 22 21 23 24 25 24 23 23 22 20 18 16 15 14 13 13 13 12 12 11 12 13 13 12 12 11 9 8 8 7 6 6 6
25 27 30 31 32 34 35 35 36 35 33 31 30 30 29 28 28 29 30 29 28 28 28 28 26 24 23 22 23 23 23 23 22 23 24 24 24 23 23 23 21 19 17 15 15 15 15 14 13 12 13 13 14 13 13 12 10 9 9 8 8 8 7
19 21 26 29 30 32 33 35 36 36 34 32 31 31 30 29 28 28 29 29 29 28 28 28 27 25 23 23 23 23 24 24 23 23 24 24 24 23 23 24 24 22 20 18 17 17 17 16 15 14 14 14 15 15 14 13 12 11 11 10 9 9 8
21 19 21 25 29 30 32 34 35 36 35 33 31 30 29 29 28 27 28 28 29 28 28 29 28 26 24 23 23 24 24 24 24 23 23 23 23 24 24 24 24 23 22 21 20 19 19 18 17 16 16 15 16 16 15 14 14 13 13 11 10 10 9
26 23 21 23 28 30 32 33 34 35 34 33 31 29 29 29 29 28 27 28 28 28 28 27 28 28 26 25 24 24 24 24 24 24 23 23 24 25 25 24 23 23 22 22 22 21 21 20 19 18 17 17 16 17 16 15 15 15 14 13 12 11 11
28 27 24 24 26 29 31 32 32 33 32 32 30 29 29 30 30 29 28 29 29 28 28 28 28 28 27 26 24 24 24 24 25 25 25 24 25 26 25 23 22 22 22 23 23 23 22 21 21 20 19 18 18 17 17 16 16 15 15 14 13 13 12
27 26 24 24 25 27 30 31 31 31 31 31 31 30 30 30 30 29 29 29 29 30 30 30 30 29 28 27 26 24 25 25 26 26 26 26 27 27 25 23 21 20 21 23 24 24 23 22 22 21 21 20 19 18 18 17 17 16 16 15 14 14 14
25 24 24 24 24 25 28 30 30 30 30 31 32 31 30 29 29 29 29 30 29 30 32 32 31 30 29 29 28 26 25 25 26 26 27 27 28 28 27 26 23 21 21 22 23 24 24 23 22 22 22 22 21 20 19 18 18 18 17 16 15 15 15
23 22 23 23 23 23 24 27 29 29 29 30 31 30 29 28 29 28 29 29 29 30 32 32 31 31 30 30 29 27 26 25 25 26 27 28 28 29 29 27 25 24 23 22 22 23 23 22 22 23 23 23 23 23 22 20 19 19 19 18 17 16 15
23 25 26 25 25 25 24 26 29 30 29 29 30 30 28 28 28 28 28 28 29 29 30 31 32 31 31 31 30 29 28 27 26 26 27 28 28 29 29 29 28 27 26 24 24 24 23 22 22 23 24 24 25 25 24 23 22 21 21 20 18 17 16
23 28 31 30 30 30 29 29 29 30 29 28 29 28 27 27 27 28 27 27 28 27 28 30 32 32 32 32 31 31 30 29 28 27 27 27 27 28 28 29 29 29 28 27 26 26 25 24 24 23 24 25 26 26 27 26 25 24 23 22 21 19 18
25 29 32 32 32 33 34 34 33 33 32 31 30 29 27 26 27 27 27 26 26 25 26 28 31 33 33 33 33 33 32 31 30 29 28 27 27 27 27 28 29 29 29 29 28 28 27 26 25 25 25 25 25 26 27 28 28 28 27 25 23 22 21
25 28 30 31 32 33 35 36 37 36 36 35 35 34 32 30 28 28 27 26 25 24 25 26 29 31 33 34 34 34 34 33 32 31 30 29 28 27 27 27 27 28 28 29 29 29 29 28 27 26 26 25 25 25 26 27 28 29 29 28 27 25 24
24 27 28 29 30 31 33 35 35 35 34 35 35 36 37 35 33 32 30 27 25 24 24 25 27 29 31 33 35 35 34 34 33 33 32 30 30 29 28 28 28 27 27 28 29 29 29 29 29 28 28 26 25 25 26 27 28 29 29 29 28 28 26
22 24 26 27 28 29 32 35 35 35 34 33 33 35 36 37 36 36 34 31 29 27 25 25 26 27 29 32 34 35 35 34 34 33 33 33 32 31 30 29 29 28 28 28 29 29 29 30 30 30 30 29 28 26 26 27 28 29 29 29 29 28 27
17 22 24 26 27 28 31 34 35 35 34 32 32 33 35 36 37 37 36 35 33 31 28 27 27 26 26 28 31 33 34 34 34 34 34 34 34 33 32 31 30 30 30 30 29 29 29 30 31 32 32 31 30 29 28 28 28 28 29 29 29 29 28
9 16 20 23 26 27 30 33 35 35 35 34 33 33 33 34 35 36 36 36 35 33 31 30 29 27 26 25 26 28 31 33 34 35 35 35 34 34 33 32 32 31 31 31 30 30 30 30 31 32 32 32 31 31 30 29 27 27 27 28 29 30 30
7 11 15 17 20 24 28 33 36 37 36 36 35 34 33 33 34 35 36 36 36 35 33 32 31 29 27 25 24 25 28 31 33 35 36 35 34 34 34 34 34 33 33 32 31 30 30 31 31 31 31 31 32 31 31 29 27 26 26 27 28 29 31
5 7 12 15 16 18 24 29 33 36 37 37 36 35 34 33 33 34 35 36 37 37 37 37 35 31 27 25 26 26 27 28 31 33 35 35 34 34 35 35 35 35 34 34 33 33 32 32 31 31 31 31 31 31 30 29 27 26 26 26 26 28 30
6 5 3 9 12 15 20 25 28 31 34 36 36 36 35 33 33 34 35 35 35 35 36 38 39 36 30 26 25 26 27 27 29 32 33 33 33 34 35 36 35 35 35 35 35 35 34 33 32 32 31 31 31 30 30 29 27 26 26 25 26 27 28
9 6 8 3 2 5 9 15 20 23 28 32 35 36 36 35 34 34 34 33 33 32 31 32 35 36 34 30 27 25 26 27 27 29 30 31 32 32 34 35 35 35 35 35 36 35 35 34 34 33 32 31 31 30 30 29 27 26 26 26 26 27 28
15 8 5 7 6 6 4 4 9 15 21 27 32 35 36 35 35 35 33 32 32 31 28 28 29 32 33 31 27 26 27 26 26 27 28 28 30 31 32 33 33 33 33 34 35 35 35 35 35 34 33 32 32 32 31 28 27 26 26 26 26 27 29
16 16 8 1 7 8 7 5 4 9 13 16 21 28 31 31 32 32 31 31 31 29 28 29 29 27 28 28 25 25 26 26 26 26 27 28 29 29 30 31 31 31 32 33 34 34 35 35 34 34 34 33 33 33 31 29 27 27 26 26 26 28 30
15 19 18 12 4 2 4 4 4 5 6 6 8 15 23 26 27 27 27 28 28 27 27 29 29 26 26 26 23 23 24 26 27 28 28 29 30 29 29 29 29 29 29 31 32 33 34 34 34 34 34 34 33 33 32 31 29 28 28 27 27 29 30
16 19 22 22 17 10 5 2 1 3 5 5 6 10 17 20 21 21 21 22 24 25 25 27 28 28 26 25 23 22 24 26 29 30 31 31 31 30 30 29 29 29 29 29 30 31 31 33 34 34 34 33 33 33 33 32 30 29 29 28 28 30 31
17 19 22 25 25 21 16 11 7 5 4 5 7 11 14 15 16 18 19 20 21 25 27 28 30 30 28 27 26 26 27 28 30 31 33 33 32 31 31 31 31 31 30 30 30 29 29 31 33 34 34 33 33 33 33 32 31 30 29 29 29 31 32
20 19 21 23 25 27 25 20 15 12 9 6 8 11 13 14 15 18 20 20 20 24 29 32 33 32 32 32 31 30 30 32 33 34 34 35 34 33 33 33 34 34 33 32 31 30 29 30 32 33 34 34 34 33 33 32 31 30 30 29 30 31 33
24 22 20 21 23 27 29 26 22 20 16 11 9 11 12 14 16 18 20 22 23 24 27 31 33 34 35 34 33 31 31 33 35 37 38 38 37 36 36 36 35 35 35 34 32 31 30 30 31 33 34 34 34 33 32 31 31 30 30 30 30 32 33
29 26 23 21 22 25 29 30 29 27 23 18 14 13 12 14 17 18 19 23 26 26 25 27 29 31 33 34 33 33 32 32 34 36 39 40 40 39 38 38 37 37 37 36 35 33 32 32 32 33 35 35 34 33 31 31 30 30 31 31 31 32 33
32 31 29 25 24 24 26 29 32 32 30 25 20 16 15 16 17 17 17 22 28 29 26 26 27 30 31 32 32 33 32 33 34 36 37 39 39 40 40 40 40 39 38 38 37 36 35 34 33 34 36 35 34 32 31 30 30 30 30 31 31 32 33
32 33 33 32 29 27 26 27 30 33 34 31 25 21 19 19 20 18 17 21 27 30 27 25 28 30 31 31 31 31 31 33 34 35 35 36 37 38 39 40 40 40 39 39 38 38 37 36 35 36 36 35 34 32 31 31 31 31 30 31 31 32 33
30 32 34 35 35 33 31 29 30 32 34 34 32 28 25 24 24 22 19 20 24 27 26 26 29 31 32 31 30 29 30 31 33 33 34 35 36 37 38 38 38 38 38 38 39 39 38 38 37 37 37 37 35 33 32 32 32 31 31 31 32 32 32
28 29 31 34 36 36 35 34 32 32 33 34 35 35 32 29 29 28 25 23 23 25 27 28 30 31 32 33 32 30 30 31 32 32 32 33 34 36 37 37 38 39 39 39 39 39 39 39 39 39 39 38 37 36 36 35 33 32 31 32 32 32 32
27 27 28 30 33 36 37 36 35 33 32 33 34 36 37 36 34 33 31 28 26 25 26 27 29 31 33 34 34 33 32 33 33 33 32 32 32 33 35 37 38 39 41 41 39 38 39 39 40 40 40 39 38 39 39 39 36 33 32 32 31 31 32
25 27 27 27 30 33 36 36 36 35 34 33 33 33 37 39 39 38 36 33 31 30 28 27 28 30 32 34 35 35 35 35 35 35 33 32 32 32 32 34 37 39 41 42 41 39 38 38 39 40 40 40 41 41 42 41 39 36 35 35 34 33 33
26 26 26 26 28 30 33 35 36 36 35 35 35 33 34 37 41 42 41 38 36 34 31 29 29 30 31 33 35 37 37 36 36 36 35 34 33 32 32 32 34 38 41 42 42 41 39 39 39 38 38 40 42 42 42 42 40 39 39 39 37 35 33
29 27 27 26 27 29 31 33 35 36 35 35 36 35 33 34 39 43 44 43 41 37 35 33 32 31 32 33 35 36 37 37 37 37 37 35 34 33 33 32 33 35 39 41 41 40 39 39 38 36 37 40 42 42 43 42 42 42 42 41 40 38 35
32 30 28 27 27 28 30 31 34 36 36 35 36 37 35 34 35 40 45 46 44 41 40 39 37 35 33 34 35 36 36 37 38 38 38 37 36 35 34 34 33 32 35 38 39 38 37 36 35 35 36 38 40 41 42 42 42 43 43 43 42 41 39

ECMWFFLT1_700_spd_078.txt.gz
Wind_Speed
24 26 27 26 24 26 27 27 27 27 26 25 25 26 28 30 31 32 31 30 29 27 26 25 24 23 23 22 22 20 18 18 19 22 22 22 22 20 18 16 14 12 11 10 10 9 9 8 7 7 7 7 7 7 7 6 5 4 4 4 4 3 2
18 19 22 24 25 25 26 28 29 28 26 26 25 26 28 30 30 31 31 31 30 28 27 26 24 23 22 21 21 22 20 18 18 20 23 24 24 22 20 18 16 14 13 12 11 11 11 10 9 8 8 8 9 9 9 8 7 6 6 5 5 3 2
12 15 17 20 22 23 24 26 28 28 27 25 26 27 28 29 30 30 30 30 30 29 29 27 25 24 22 21 21 21 22 20 18 19 22 24 24 24 22 20 19 17 16 14 13 13 12 12 11 11 10 9 9 10 10 10 9 9 8 7 6 4 3
13 14 15 17 20 22 24 25 27 28 26 25 25 25 26 28 29 29 29 29 30 30 29 28 27 25 24 23 22 21 22 22 20 18 19 22 24 24 24 23 21 20 18 16 15 15 14 14 14 13 12 10 10 11 11 11 11 11 10 9 7 6 6
16 16 16 17 18 20 23 24 25 26 26 25 24 24 24 25 27 29 29 29 29 29 29 28 27 27 25 24 23 22 21 21 21 20 19 20 23 24 25 24 23 22 20 18 17 17 17 16 16 14 13 12 11 11 11 11 12 12 12 11 9 8 8
18 19 18 18 18 18 20 22 24 25 25 24 24 23 23 24 26 28 29 29 29 29 29 28 28 28 27 26 24 22 22 21 22 22 21 21 22 24 25 24 24 23 22 20 20 19 19 19 18 16 14 14 13 12 12 12 12 12 12 12 11 10 10
18 19 20 18 17 17 18 20 22 24 25 23 23 24 24 23 24 26 28 29 30 30 30 29 29 29 28 27 25 24 23 22 22 23 23 23 23 23 24 25 25 24 23 23 22 21 21 21 20 18 17 16 15 14 13 13 13 13 13 13 12 12 12
20 20 20 17 14 15 18 20 21 24 26 25 24 25 25 24 23 24 26 28 29 30 30 30 29 29 29 28 27 26 24 23 23 23 24 25 25 24 24 25 25 25 25 24 23 23 22 22 21 20 19 18 17 16 15 14 14 14 14 13 13 13 13
23 24 23 18 15 16 18 20 22 24 27 28 27 26 24 24 23 23 24 26 29 30 30 30 29 29 28 28 28 27 26 25 24 24 24 25 25 26 25 25 24 24 25 24 24 24 24 23 23 22 21 20 19 18 17 16 16 15 15 14 13 13 13
22 27 29 25 20 18 18 19 21 23 26 28 30 28 26 25 23 22 22 24 27 29 29 29 29 28 28 29 28 28 28 26 25 25 25 24 25 26 26 26 25 25 24 23 23 24 25 25 25 24 23 21 20 20 19 18 18 17 16 15 14 14 13
19 25 29 28 24 22 21 20 20 22 24 26 30 31 31 29 26 24 22 22 25 26 28 28 29 29 29 29 29 29 29 28 27 26 25 24 24 24 25 27 27 27 26 24 24 24 24 25 25 25 23 21 21 21 20 20 20 20 19 18 16 16 15
15 21 26 27 26 25 24 23 22 22 22 23 26 30 32 31 30 27 25 23 22 23 25 27 28 28 29 29 30 30 30 29 28 27 25 24 24 23 24 26 28 29 28 27 26 26 25 26 26 25 23 22 21 21 21 21 21 21 21 20 20 19 18
10 16 21 25 26 26 25 25 24 23 22 22 23 26 29 30 30 28 26 24 23 22 23 25 27 28 28 29 30 30 30 30 29 28 27 26 24 24 23 24 26 29 30 29 29 28 28 27 27 26 25 23 22 22 21 21 22 23 23 23 23 22 21
9 10 14 18 22 24 24 24 24 23 23 22 22 23 26 29 30 29 27 24 23 23 23 24 26 27 27 28 29 30 30 30 29 29 28 27 27 26 25 24 25 26 28 30 30 30 29 29 28 28 27 26 25 24 23 23 23 23 24 24 24 24 24
7 8 10 12 15 19 21 21 23 24 23 22 22 23 24 27 30 30 29 27 25 25 24 24 25 26 27 27 29 29 29 29 30 30 29 29 29 27 27 26 25 25 26 28 30 30 30 30 30 30 30 29 28 27 26 26 25 24 24 24 24 25 25
4 5 7 10 12 15 18 20 21 23 23 22 21 22 23 26 28 30 30 29 27 26 25 25 26 26 27 27 27 27 28 28 29 30 30 30 30 29 29 28 27 27 27 27 28 28 29 30 30 31 31 31 30 30 29 29 27 26 24 24 24 24 25
2 3 4 7 11 13 16 18 20 21 22 22 21 21 22 24 26 28 28 29 28 27 26 26 26 26 27 27 27 26 26 27 28 29 30 31 30 30 30 30 30 29 28 28 28 28 28 29 30 31 31 31 31 31 31 30 29 27 26 25 24 24 24
2 1 3 6 9 12 14 17 19 20 20 21 22 22 22 23 24 25 27 28 28 28 28 28 27 27 27 27 27 26 26 27 27 29 30 31 31 32 31 31 32 32 31 30 29 28 29 29 30 30 30 30 31 31 31 30 29 28 27 26 25 25 25
5 3 1 4 7 10 12 14 17 19 20 21 22 23 23 23 23 24 25 27 29 29 30 29 29 28 29 28 28 29 29 30 30 31 31 31 31 31 32 33 34 34 33 32 31 31 31 30 30 30 30 30 30 30 29 29 28 27 27 27 26 26 26
6 5 6 3 2 6 10 12 13 16 19 20 22 23 24 24 24 25 25 26 28 30 30 30 29 29 28 28 28 29 32 34 34 34 34 33 32 31 32 33 34 34 34 34 33 33 32 31 31 31 31 31 30 30 29 28 27 27 27 27 27 27 27
7 3 5 6 2 1 4 8 11 13 16 19 20 22 24 25 25 26 27 28 30 31 32 31 30 28 27 27 28 29 30 32 33 34 34 35 35 34 33 34 35 35 35 34 35 34 33 33 33 32 32 31 31 31 30 28 26 26 27 27 27 27 28
8 8 4 2 3 2 1 3 6 10 13 17 18 20 23 25 25 26 29 32 33 34 33 32 30 30 28 26 27 30 31 29 29 31 32 33 36 36 35 35 34 34 33 33 34 34 34 34 34 34 33 32 32 32 31 28 26 26 26 26 27 28 29
8 10 11 7 1 2 3 2 1 4 8 12 15 19 21 24 25 27 30 34 34 32 30 29 29 31 30 27 27 30 32 30 29 31 31 31 34 36 35 34 33 32 31 31 31 32 33 34 34 34 34 33 34 34 32 29 27 26 26 25 26 27 29
10 10 13 13 9 4 1 1 2 2 4 7 9 14 18 21 22 20 20 24 27 27 26 27 29 31 32 30 29 30 30 30 30 32 34 32 33 34 34 34 33 31 30 30 30 30 31 32 32 33 34 34 34 33 33 31 29 28 27 26 26 28 29
13 12 13 15 15 12 8 5 4 4 3 3 4 8 12 16 16 13 11 13 18 22 24 25 28 31 32 33 32 30 29 29 29 33 35 34 33 33 33 33 33 32 31 30 30 30 30 30 31 32 32 33 33 33 32 31 30 29 29 27 27 28 28
15 15 15 16 18 19 17 15 12 10 8 7 6 6 7 8 9 10 11 12 15 20 23 24 28 31 32 34 34 32 30 29 29 32 34 35 34 34 33 33 33 32 31 31 31 31 31 31 31 31 31 31 32 32 32 31 30 29 29 28 28 29 29
18 17 17 18 20 22 24 23 21 18 14 13 11 7 6 5 5 7 9 10 14 19 22 24 26 28 29 31 32 32 31 30 30 30 32 34 35 34 33 33 32 31 32 32 31 31 31 31 31 31 31 31 31 31 31 30 29 29 29 29 29 29 30
22 21 19 18 19 22 26 27 27 25 22 19 16 12 11 10 8 8 7 8 11 16 19 23 26 26 27 29 29 30 30 28 28 28 28 30 33 35 35 33 31 31 31 31 31 31 31 32 32 31 31 31 31 31 30 29 28 28 28 28 28 29 30
26 25 23 21 20 21 24 27 30 30 28 26 23 19 17 15 13 13 10 7 7 11 15 20 24 25 27 28 28 28 29 28 27 25 24 25 28 31 33 34 33 32 31 31 31 31 32 32 32 32 32 31 31 30 29 27 27 27 26 26 27 28 29
30 29 27 26 24 23 23 24 28 32 34 33 30 27 24 19 17 18 16 11 8 9 12 17 20 24 26 26 24 26 29 29 27 24 22 24 26 27 29 31 33 33 32 31 31 31 32 32 32 33 33 32 31 30 28 27 27 26 25 25 25 26 27
33 32 31 30 28 27 26 25 25 29 35 38 36 34 31 26 22 20 19 16 13 12 14 16 19 23 26 25 22 23 26 27 25 24 24 25 26 26 27 28 31 32 31 30 30 31 32 32 32 33 33 33 32 30 29 28 27 26 25 25 25 25 26
35 35 34 34 32 30 30 29 27 27 31 36 39 39 36 32 28 24 23 22 21 19 18 18 19 21 23 26 24 23 24 25 24 25 27 27 27 27 27 28 31 32 32 31 29 29 31 32 32 33 34 33 33 31 30 29 29 27 26 26 26 25 26
35 36 36 36 35 33 32 32 31 29 29 31 35 39 40 38 34 30 28 28 27 25 24 23 22 21 22 26 26 22 20 21 23 24 26 27 29 29 28 29 32 33 33 32 28 26 29 32 33 34 34 34 33 32 32 31 30 28 27 27 26 25 25
33 34 36 37 37 35 34 34 33 32 30 29 31 35 39 42 41 37 33 32 31 30 29 28 26 24 23 25 28 26 20 18 20 24 24 24 26 26 25 26 28 30 29 27 24 24 27 30 32 34 34 34 33 33 33 34 32 30 28 28 28 27 27
33 32 34 35 36 36 35 34 33 33 31 29 30 32 35 39 42 42 38 35 33 33 32 31 30 29 26 24 27 29 25 19 19 22 25 25 25 25 25 26 27 27 25 23 22 23 25 28 31 33 33 32 32 32 33 34 34 32 31 31 32 31 31
37 33 32 33 35 36 35 33 32 33 32 30 30 31 31 33 38 42 42 40 37 35 34 34 34 33 31 28 26 26 24 21 19 21 24 28 28 27 26 27 27 26 24 22 21 23 24 27 30 31 32 32 32 31 31 33 33 32 32 34 34 34 33
41 37 34 33 34 36 35 33 31 32 32 30 29 30 31 32 34 38 41 43 42 39 37 37 36 36 35 33 31 28 25 23 21 20 22 26 30 31 29 28 27 26 24 22 22 22 24 26 29 31 32 34 33 32 31 31 31 32 34 35 35 35 35
44 41 37 34 34 35 34 32 31 31 31 30 30 30 31 32 33 36 38 41 44 45 42 38 37 38 37 37 36 34 30 26 24 23 22 23 28 31 32 30 28 27 26 24 24 24 23 25 27 29 33 35 34 33 33 31 31 32 34 35 35 35 35

ECMWFFLT1_700_spd_084.txt.gz
Wind_Speed
13 14 16 18 19 18 18 19 21 24 27 29 31 30 29 29 29 28 27 26 25 24 23 23 22 22 21 20 19 20 21 22 21 21 20 19 18 17 16 15 15 14 14 13 13 12 12 11 11 11 11 10 9 9 8 8 7 6 5 5 5 5 4
13 14 14 16 19 20 19 19 20 22 25 27 29 31 30 30 29 28 27 26 25 25 24 23 23 22 21 21 20 20 21 22 22 22 21 20 19 18 17 17 16 15 15 15 14 14 13 12 12 11 11 11 10 9 9 8 8 7 6 5 5 5 5
12 15 16 17 18 20 21 22 21 22 23 25 27 30 32 31 30 28 27 26 26 26 25 25 24 23 22 22 21 20 20 21 22 23 22 21 20 20 20 19 17 17 16 16 15 15 14 13 13 12 12 11 11 10 10 9 9 8 7 6 6 5 5
10 13 16 19 20 21 23 24 24 23 23 24 25 27 30 32 30 29 27 27 27 27 26 26 25 24 23 23 22 22 21 21 21 22 23 22 22 22 22 21 19 18 17 17 16 16 15 15 14 13 13 12 12 11 11 11 10 9 8 7 7 6 5
7 10 13 15 18 20 22 25 26 25 24 24 24 25 26 28 29 29 29 28 28 28 27 26 26 26 25 23 23 23 22 21 21 21 23 24 24 24 23 22 21 20 19 18 18 17 17 16 15 14 13 13 12 12 12 12 11 10 9 9 8 7 6
5 7 10 13 16 19 20 24 26 26 25 25 25 24 24 25 26 27 28 29 29 28 28 28 27 27 26 24 23 23 23 23 22 22 22 23 24 25 24 23 23 22 21 20 19 18 18 18 17 16 15 14 13 13 12 12 12 11 11 10 9 8 7
5 6 7 10 15 18 17 19 22 24 25 25 24 24 24 24 24 25 26 28 29 29 28 28 29 28 27 26 25 23 23 23 23 23 22 23 24 25 25 25 25 24 23 22 21 20 19 18 18 17 16 16 15 14 13 13 13 12 12 11 10 10 9
7 6 7 8 13 17 17 17 19 20 22 23 23 23 24 23 23 24 26 27 28 29 29 29 29 29 28 27 26 25 24 23 23 24 24 23 23 24 26 27 26 26 25 24 23 22 20 19 19 19 18 17 17 16 15 14 13 13 13 12 12 11 10
7 7 7 7 10 15 18 20 21 21 21 20 21 22 23 23 24 24 25 25 26 28 29 29 29 30 29 28 27 26 25 24 24 24 24 24 24 24 24 26 27 27 27 26 25 24 23 22 21 20 19 18 17 17 16 15 14 14 14 14 14 13 12
7 7 7 8 10 14 19 22 24 24 24 23 22 22 22 22 23 24 24 24 25 27 28 28 30 30 29 28 28 27 27 26 25 25 24 24 24 24 24 24 25 27 28 28 27 27 25 24 23 22 21 20 18 17 17 16 16 15 15 15 15 15 14
6 6 7 8 10 15 19 22 25 25 26 26 24 23 23 23 23 23 23 24 24 25 26 28 30 31 30 29 28 28 28 28 27 26 25 24 23 23 23 23 24 25 27 28 28 28 27 26 26 25 23 22 21 19 19 18 18 17 17 17 17 16 16
5 5 6 7 10 14 18 22 25 26 27 28 26 25 26 25 24 22 22 23 23 24 26 27 29 30 30 29 29 29 29 29 29 28 26 25 24 23 23 24 24 24 25 26 28 28 28 27 27 26 24 23 23 22 21 21 20 20 19 19 19 18 18
7 6 6 6 7 12 17 20 24 27 28 28 27 27 27 28 27 25 24 24 23 24 25 27 28 30 31 30 30 30 30 29 29 29 28 27 26 25 24 24 25 25 24 26 27 28 28 28 28 27 25 24 24 24 23 23 23 23 22 21 21 21 21
8 9 8 7 6 9 14 19 22 24 26 28 28 28 29 30 31 29 28 27 25 25 25 26 27 29 30 31 32 32 31 30 29 29 29 29 28 27 26 26 25 25 25 26 27 28 28 28 28 28 27 26 26 26 26 25 25 25 24 24 24 23 23
7 8 9 9 8 7 9 15 19 22 24 27 28 29 29 30 31 30 29 28 27 27 27 27 29 29 30 31 33 33 32 31 31 30 30 30 30 29 28 28 27 27 27 27 27 28 28 28 28 28 28 28 27 27 27 27 27 27 27 26 26 25 25
5 7 8 8 9 9 7 7 13 19 23 25 27 28 28 28 29 30 29 28 28 29 30 30 31 31 32 32 32 32 32 32 32 32 31 30 30 30 29 29 29 29 28 28 28 28 29 30 30 29 29 28 28 28 28 28 28 27 27 26 26 26 26
3 5 6 7 8 8 8 9 8 11 18 22 24 26 27 27 27 29 30 30 29 30 31 32 32 32 33 33 32 32 33 32 32 32 31 31 30 30 29 29 30 30 30 29 29 29 29 30 31 32 31 30 30 30 29 29 28 27 26 25 26 26 27
3 4 5 6 6 7 9 10 10 9 12 17 20 22 24 24 25 27 29 31 31 29 29 31 31 32 33 33 33 34 35 34 33 33 32 32 31 30 30 30 30 31 31 30 30 30 30 30 31 32 33 33 33 32 32 31 30 28 26 25 26 26 27
4 4 5 5 6 6 8 8 9 10 10 13 16 18 21 22 23 25 26 28 31 29 28 27 28 30 33 34 33 35 36 35 35 35 33 33 32 32 32 31 31 32 31 31 31 32 32 31 31 32 32 33 34 34 34 33 32 31 29 28 28 28 29
6 6 6 6 7 8 8 8 9 10 11 12 14 16 19 20 21 23 24 26 28 29 28 27 27 28 31 33 33 34 35 35 36 37 36 35 34 34 34 33 32 32 31 31 32 33 33 32 33 33 33 33 34 34 34 34 34 33 31 31 31 31 31
8 8 8 7 7 8 9 9 9 10 11 13 14 16 18 20 20 22 23 24 26 27 27 26 27 27 30 33 34 33 33 34 35 37 37 37 36 36 35 34 33 33 32 32 33 34 33 33 34 34 34 34 33 34 34 33 33 32 31 30 30 31 32
10 10 10 9 8 8 9 10 10 9 10 11 13 15 16 18 19 20 22 23 23 25 26 26 26 27 29 32 32 32 33 35 35 35 36 37 37 36 36 35 35 34 34 35 36 35 34 34 35 35 35 34 34 34 34 33 32 31 30 29 29 30 32
13 13 13 12 11 10 9 9 9 9 9 9 11 14 14 13 15 16 19 22 23 23 24 25 26 27 28 29 29 31 33 34 35 35 35 37 38 38 37 36 36 36 37 37 37 37 36 35 35 36 36 35 35 35 35 33 32 32 31 30 30 31 32
16 15 15 15 15 14 12 10 9 9 9 8 9 11 12 11 10 11 14 17 20 23 23 23 24 24 23 22 26 29 29 30 32 35 36 37 38 39 38 38 38 38 38 38 38 38 37 37 37 37 37 36 36 35 34 33 33 33 32 32 32 33 34
18 18 18 18 18 17 16 14 12 10 9 8 8 8 10 9 8 7 7 10 14 17 20 21 22 21 20 22 25 28 29 29 29 31 34 36 37 37 37 37 37 38 38 38 38 38 38 38 39 38 37 37 37 36 35 34 33 33 33 33 33 34 34
19 19 20 21 20 20 19 18 17 15 12 11 9 8 9 9 8 5 4 5 8 10 13 16 19 21 22 25 27 29 31 33 32 30 30 31 32 34 35 35 36 36 37 38 38 38 38 38 39 38 37 37 38 38 37 36 35 35 34 33 34 34 35
21 20 21 23 23 23 23 21 20 18 17 15 13 11 10 10 9 8 6 7 8 8 9 11 15 18 22 25 26 27 29 32 35 36 35 33 32 31 32 34 34 34 35 36 36 37 37 37 37 37 36 37 38 39 39 37 36 36 35 34 34 35 36
25 24 23 24 24 26 26 25 23 21 20 19 18 16 14 12 12 11 10 9 9 9 9 9 10 12 17 21 23 24 26 29 33 36 36 36 36 34 32 32 32 32 33 34 35 36 36 36 36 35 35 35 36 38 38 38 36 35 34 34 34 35 37
28 28 26 26 26 27 28 28 27 25 23 22 21 20 19 17 16 14 13 11 9 9 10 10 9 10 13 16 20 22 24 25 28 30 31 33 36 38 37 36 34 33 32 33 35 36 36 36 36 35 34 34 34 34 36 37 36 34 33 33 33 34 36
31 32 31 30 29 28 29 29 30 30 28 26 25 24 22 21 20 18 17 15 13 11 11 11 11 11 12 13 14 14 15 17 22 25 26 27 30 34 36 37 37 35 33 32 33 35 36 36 36 34 33 32 32 32 32 34 35 34 32 30 30 31 33
31 32 34 35 34 33 32 32 31 32 32 30 29 27 26 25 24 22 21 19 18 16 15 13 11 10 10 12 11 10 9 10 14 19 22 23 24 26 29 32 34 35 33 30 29 30 32 33 34 32 30 30 31 32 32 32 33 33 31 30 30 30 31
32 32 33 35 37 37 37 36 35 34 34 34 32 30 29 29 28 26 24 22 20 20 19 18 15 12 11 11 10 10 10 9 9 11 15 18 21 22 23 26 29 31 31 31 30 29 28 30 31 30 29 28 30 31 31 31 32 32 31 32 32 32 31
31 32 32 34 36 38 39 40 40 39 37 36 36 34 33 32 31 31 29 26 24 23 22 22 21 19 16 14 12 11 11 11 10 10 11 14 17 20 22 23 25 27 29 31 31 30 27 27 28 29 29 28 28 29 29 30 31 31 32 34 35 36 34
30 31 32 33 34 36 38 39 41 42 42 41 40 39 37 35 34 34 34 32 29 26 25 24 24 23 22 20 18 16 13 12 11 12 13 14 15 18 20 22 23 25 28 28 28 27 26 25 25 26 28 28 28 30 31 31 31 32 33 35 36 37 35
30 31 31 32 33 35 37 38 39 40 42 43 43 43 43 41 38 36 36 36 35 32 30 28 26 26 26 25 23 22 19 15 14 14 15 15 16 18 19 19 20 23 27 28 28 27 26 25 24 25 27 28 29 31 33 34 34 35 34 34 35 35 33
30 30 30 31 32 34 36 38 39 39 40 42 43 44 46 47 45 42 40 40 39 38 36 33 31 29 29 28 27 26 24 22 20 19 17 16 18 20 21 19 18 19 21 24 28 29 30 29 26 25 27 28 28 29 32 34 35 36 35 36 36 35 33
31 31 31 30 30 31 33 35 38 39 40 40 41 42 44 47 49 48 46 44 43 43 42 40 37 35 33 32 31 30 29 27 25 23 21 20 19 19 20 21 19 17 16 17 21 26 30 32 30 28 28 28 28 28 30 32 33 34 35 36 36 35 34
32 33 33 33 32 32 32 33 35 38 39 40 41 42 43 45 47 48 48 47 46 45 45 45 44 41 39 37 35 33 33 32 29 27 25 24 22 20 21 22 21 19 16 14 15 18 23 28 31 32 31 32 33 33 31 29 29 31 33 35 35 35 35

ECMWFFLT1_700_spd_087.txt.gz
Wind_Speed
12 15 18 23 22 19 20 22 23 24 24 25 25 26 27 28 28 27 25 25 23 22 21 20 21 20 20 19 20 21 23 23 22 21 20 19 18 17 16 14 13 13 12 12 12 12 12 11 11 10 9 9 8 7 7 6 6 5 6 6 6 5 5
10 12 13 17 18 18 19 21 22 24 25 25 26 26 27 27 28 28 26 25 24 23 22 21 20 21 20 20 20 20 22 23 23 22 21 20 19 18 17 15 15 14 13 13 13 13 13 12 12 11 10 10 9 8 8 7 6 6 6 6 6 5 5
12 14 14 15 18 19 20 21 22 24 25 26 26 26 27 28 28 28 27 25 25 24 23 22 21 21 21 21 20 20 21 22 23 23 22 21 19 18 18 17 16 15 15 14 13 13 13 13 12 12 11 11 10 10 9 8 7 6 5 5 5 5 5
10 14 15 14 17 20 21 23 23 25 26 27 26 25 27 29 28 27 26 25 26 25 25 24 22 21 21 21 21 20 20 21 22 23 22 22 20 20 19 18 17 16 16 15 15 14 13 13 13 12 12 11 11 11 10 9 8 7 6 5 5 5 5
8 11 14 14 16 17 21 26 26 27 27 27 27 26 26 27 27 26 25 25 26 26 26 25 24 23 22 21 21 21 20 20 20 21 22 23 22 21 21 20 18 18 17 16 16 15 14 14 13 13 12 12 11 11 11 10 10 9 8 7 6 6 5
10 13 16 18 17 13 15 21 24 24 25 27 28 28 28 27 27 27 26 25 26 27 28 27 25 25 23 22 21 21 21 20 20 21 22 23 22 22 21 21 20 19 19 18 17 17 16 15 14 14 13 13 12 11 11 11 11 11 10 9 8 8 7
8 10 13 16 19 16 13 15 17 18 21 25 28 29 29 28 28 29 27 27 27 28 28 28 27 26 24 23 22 21 21 21 21 21 21 22 22 22 22 22 21 21 21 20 19 18 17 16 16 15 14 14 13 12 12 12 12 12 11 11 10 9 9
6 7 8 9 15 19 18 16 17 17 18 22 25 27 29 29 29 29 28 28 29 28 30 30 28 26 25 24 23 22 21 21 22 22 21 21 21 22 23 23 23 23 22 22 21 20 19 18 17 17 16 16 15 14 13 12 12 12 12 12 12 11 10
7 6 6 6 9 16 18 18 18 19 19 21 21 23 26 27 28 28 27 29 30 31 33 30 26 26 26 25 24 23 22 22 22 22 22 22 21 20 21 22 23 24 24 23 22 21 21 19 18 18 17 17 16 15 14 13 13 12 12 12 12 12 12
7 6 5 5 7 13 18 18 18 18 20 20 20 21 22 22 24 25 26 28 30 32 32 29 27 27 27 26 24 24 23 22 22 22 23 23 22 21 20 20 21 23 24 23 23 23 23 22 21 20 18 18 17 16 15 14 14 13 13 13 13 13 13
5 5 5 5 6 12 17 18 19 19 19 20 21 21 21 22 23 25 26 27 28 30 28 25 26 27 26 25 26 25 25 24 23 22 23 23 23 22 20 20 21 22 22 23 24 25 24 24 23 22 21 19 18 17 16 16 15 15 15 14 14 14 14
4 3 3 4 6 11 16 18 19 20 20 20 20 20 21 23 25 27 28 28 28 29 25 24 25 25 24 24 25 26 26 25 24 23 23 23 23 22 21 22 22 21 21 22 24 25 25 25 25 24 23 22 20 20 19 18 18 17 17 16 15 16 16
4 4 3 3 5 8 13 18 20 21 21 20 20 21 22 23 26 29 30 30 31 29 26 26 26 25 24 23 24 27 27 26 26 25 24 24 23 23 22 22 23 22 22 22 22 24 25 26 27 26 25 24 23 23 22 21 21 20 19 19 18 18 17
3 3 4 4 4 6 9 15 19 21 22 22 22 22 22 22 25 27 28 29 29 27 27 28 26 26 26 25 25 27 27 27 27 27 27 26 25 25 24 24 23 23 23 23 22 23 23 25 27 26 25 25 25 25 25 24 23 22 21 21 21 21 20
2 2 3 3 4 5 7 10 15 19 22 23 24 24 24 23 24 25 26 26 24 22 24 26 26 27 29 28 28 28 28 29 29 29 29 29 28 28 26 25 24 24 25 24 23 23 24 24 26 26 25 25 25 26 26 26 25 24 24 23 22 22 21
1 2 2 3 3 4 5 7 10 15 19 22 24 25 26 25 25 25 26 26 23 22 24 26 27 29 30 30 31 30 30 32 32 32 32 31 31 31 29 28 26 25 26 25 24 24 24 24 24 25 25 25 25 25 26 26 27 26 25 24 23 23 23
1 2 3 3 3 4 4 5 6 10 14 19 22 25 26 27 27 26 26 26 24 23 26 29 30 32 32 32 33 33 33 34 34 35 35 33 33 33 32 31 30 29 28 27 27 26 25 25 24 24 25 25 25 25 25 25 26 27 26 24 24 24 24
1 2 3 4 3 4 4 5 5 7 9 13 17 22 25 27 27 27 27 28 26 23 25 29 31 32 33 33 34 35 36 37 37 38 37 35 34 34 34 33 33 33 31 30 29 28 27 27 27 27 26 26 25 26 26 25 26 26 24 23 22 23 24
3 3 3 4 4 5 6 6 6 6 6 8 11 16 20 25 27 27 27 29 29 26 25 27 29 31 33 34 37 38 37 38 40 41 40 38 37 36 35 35 35 35 34 32 31 31 30 29 29 29 28 28 27 27 27 27 26 26 24 22 21 22 24
5 4 4 4 4 5 6 6 6 6 6 6 8 10 14 19 23 26 27 28 30 30 28 27 28 31 33 34 35 36 35 35 38 41 43 42 41 39 38 38 37 36 35 34 33 33 32 31 30 30 30 29 29 29 28 28 27 27 26 23 22 23 24
8 7 6 6 6 6 6 7 7 7 7 7 7 8 11 14 18 22 25 27 28 30 30 30 30 31 32 33 32 32 33 33 33 36 40 41 41 42 42 40 39 38 36 35 35 34 32 31 31 30 30 29 29 29 28 27 27 29 28 25 24 25 26
10 9 8 8 8 8 8 8 8 8 8 8 8 9 10 12 16 19 22 24 26 27 29 30 32 33 33 34 33 32 32 33 31 30 32 34 34 38 40 39 39 40 38 36 35 34 33 32 32 32 31 29 29 29 28 27 27 28 27 25 24 25 27
14 13 11 11 11 10 10 10 10 10 9 9 9 9 10 11 14 16 19 21 23 25 26 28 31 34 34 35 35 34 34 34 33 31 31 32 32 34 36 36 36 37 39 39 38 35 34 33 33 33 32 32 31 30 29 28 28 28 26 25 24 25 26
17 16 15 14 14 14 12 12 12 11 11 10 10 10 10 11 12 13 15 18 20 22 23 24 28 32 34 35 35 36 36 36 35 32 31 33 35 35 36 36 36 37 38 39 39 38 36 35 34 33 33 33 32 31 31 30 30 29 28 27 26 26 26
20 20 19 18 18 17 15 15 15 13 13 12 11 10 10 11 11 12 13 15 16 18 20 22 25 28 31 32 33 34 35 37 36 34 32 33 35 36 37 37 38 39 39 39 39 40 39 37 36 34 34 33 33 32 31 31 31 30 30 29 29 28 28
22 22 22 22 22 20 18 18 18 17 16 15 13 12 12 11 12 12 13 14 14 15 16 18 22 25 27 28 27 29 34 38 38 37 36 36 36 37 36 35 37 39 40 39 39 40 39 38 37 36 35 34 33 32 32 31 31 30 31 31 30 30 31
24 22 23 24 24 23 22 22 21 20 20 18 16 15 14 13 13 13 13 14 14 14 14 15 17 20 23 24 23 25 30 35 37 37 38 37 37 37 37 36 37 38 39 39 39 38 37 37 38 37 36 35 35 34 33 32 31 31 32 33 32 32 33
26 24 24 25 25 25 26 25 24 23 23 22 21 19 17 16 15 14 14 14 14 14 14 14 14 16 19 21 22 24 27 30 33 35 36 35 34 35 35 35 34 35 37 37 37 36 36 36 36 35 35 36 36 35 35 34 33 32 33 34 33 32 33
28 27 27 27 27 27 28 27 27 27 26 25 25 23 22 20 19 17 16 15 14 14 14 13 13 14 16 17 20 23 26 29 32 33 35 35 34 33 31 31 30 31 32 31 31 34 36 35 33 33 34 35 35 34 34 34 33 33 33 33 33 33 33
29 29 29 29 30 30 30 29 30 30 29 29 28 27 26 25 23 21 20 18 17 16 15 14 14 14 15 16 18 20 22 28 33 35 35 34 34 33 30 28 29 30 30 29 30 33 35 33 31 31 33 33 33 33 33 33 33 32 32 33 32 32 33
28 28 28 29 30 31 31 31 32 32 33 33 32 31 30 29 28 26 24 22 21 19 18 17 16 16 16 16 16 17 18 22 29 34 34 30 30 32 31 29 30 31 31 32 33 34 34 33 32 32 32 31 32 32 33 33 33 33 33 34 33 32 32
26 27 28 29 30 31 30 31 32 34 35 36 36 35 34 33 32 31 29 27 25 24 23 21 19 18 18 16 15 15 16 17 20 25 28 29 30 33 32 30 30 31 32 33 34 35 36 35 34 34 34 32 32 32 33 34 35 35 36 35 33 32 31
24 25 26 27 29 31 31 31 31 32 34 36 37 38 38 38 36 35 34 32 31 29 28 26 23 22 22 20 18 16 16 16 17 19 22 27 30 32 30 28 28 29 31 33 34 35 35 35 35 35 34 32 32 32 33 34 35 36 37 36 33 31 31
21 22 24 25 27 29 31 31 31 31 32 34 36 38 40 40 40 40 38 37 36 35 33 31 28 27 25 23 22 21 19 18 18 18 19 22 26 29 30 28 27 28 30 32 32 31 31 32 34 35 34 32 32 33 33 34 34 34 33 32 31 31 30
19 19 20 22 23 26 28 30 31 31 31 32 33 36 38 40 41 42 42 41 40 39 38 36 34 31 29 27 26 25 24 22 21 20 19 19 19 22 25 27 28 29 30 31 30 30 30 31 32 33 32 33 34 33 33 33 33 32 30 28 28 28 28
19 19 19 20 21 22 24 26 29 30 30 31 32 34 36 38 39 41 43 44 44 43 42 41 39 37 34 32 30 29 28 26 25 23 22 21 20 19 20 22 25 27 29 31 31 30 30 31 33 33 33 34 33 31 30 30 30 30 30 28 26 26 28
22 21 20 20 21 22 23 25 27 29 30 31 31 33 34 36 38 39 41 43 45 45 45 45 45 42 40 37 35 34 32 30 28 27 26 26 25 24 23 22 22 23 26 28 30 31 30 30 30 32 34 35 34 31 30 29 28 27 27 27 27 28 29
21 21 20 20 20 21 22 24 26 28 30 31 32 33 34 35 36 38 39 41 43 45 46 47 48 47 46 43 41 39 37 35 33 32 30 29 29 28 27 26 23 22 22 24 26 30 33 32 29 28 30 33 34 33 32 31 29 27 25 24 25 27 29